Regional Weather Roundup
Issued by NWS Sioux Falls, SD

Home | Current Version | Previous Version | Graphics & Text | Print | Product List | Glossary On
Versions: 1 2 3 4 5 6 7 8 9 10 11 12 13 14 15 16 17 18 19 20 21 22 23 24 25 26 27 28 29 30 31 32 33 34 35 36 37 38 39 40 41 42 43 44 45 46 47 48 49 50
000
ASUS43 KFSD 011702
RWRFSD

WEATHER ROUNDUP FOR SE SOUTH DAKOTA/SW MINNESOTA/NW IOWA
NATIONAL WEATHER SERVICE SIOUX FALLS SD
1200 PM CDT WED OCT 01 2014

NOTE: "FAIR" INDICATES FEW OR NO CLOUDS BELOW 12,000 FEET WITH NO
SIGNIFICANT WEATHER AND OR OBSTRUCTIONS TO VISIBILITY.


SDZ038>040-050-052>070-011800-
SOUTHEAST SOUTH DAKOTA

CITY           SKY/WX    TMP DP  RH WIND       PRES   REMARKS
CHAMBERLAIN    SUNNY     67  49  52 N13       29.78S
HURON          MOSUNNY   68  52  56 NW10      29.73F
MADISON        FAIR      66  63  88 W7        29.73F
MITCHELL       SUNNY     71  52  50 NW12      29.74S
SIOUX FALLS    PTSUNNY   69  60  73 SW7       29.73R
WINNER         FAIR      67  50  54 NW12      29.81R
YANKTON        MOSUNNY   72  59  64 W13       29.73S
$$

MNZ071-072-080-081-089-090-097-098-011800-
SOUTHWEST MINNESOTA

CITY           SKY/WX    TMP DP  RH WIND       PRES   REMARKS
FAIRMONT       CLOUDY    55  52  88 SE5       29.78F
JACKSON        CLOUDY    59  54  82 SE6       29.77F
LUVERNE        PTSUNNY   72  54  53 SW7       29.73S
MARSHALL       CLOUDY    68  57  68 SE3       29.71F
MONTEVIDEO     CLOUDY    63  61  94 S7        29.73S
PIPESTONE      PTSUNNY   68  57  68 SW5       29.73S
REDWOOD FALLS  CLOUDY    59  55  87 SE16      29.75F
TRACY          CLOUDY    65  59  80 SE10      29.73F
WINDOM         CLOUDY    61  55  82 SE8       29.76F
WORTHINGTON    CLOUDY    61  57  88 SE8       29.76F
$$

IAZ001>003-012>014-020>022-031-032-NEZ013-014-SDZ071-011800-
NORTHWEST IOWA

CITY           SKY/WX    TMP DP  RH WIND       PRES   REMARKS
CHEROKEE       CLOUDY    64  62  94 CALM      29.75S
DENISON        MOSUNNY   68  63  83 VRB5      29.75S
ESTHERVILLE    CLOUDY    57  56  96 SE5       29.77F FOG
LE MARS        MOSUNNY   70  61  73 S8        29.74S
ORANGE CITY    MOSUNNY   70  59  68 SE6       29.74S
SHELDON        CLOUDY    66  61  82 SE7       29.73F
SIOUX CITY     MOSUNNY   69  60  73 S9        29.74R
SPENCER        CLOUDY    59  56  89 E8        29.76F
STORM LAKE     CLOUDY    64  59  82 VRB6      29.77F
$$

ABBREVIATIONS USED IN REMARKS
   TC - TEMPERATURE IN CELSIUS
  WCI - WIND CHILL INDEX
   HX - HEAT INDEX
  VSB - VISIBILITY



USA.gov is the U.S. government's official web portal to all federal, state and local government web resources and services.